STARLINK-5665 (55361 NORAD) Tracking and Keplerian Element Data

This shows tracking and keplerian element data for the satellite.

Feedback or suggestion? Click here.




ElementValue
Catalog55361
NameSTARLINK-5665
Epoch Orbit1619
Epoch Day127.00001157
Epoch Year2023
RAAN166.0724
Inclination42.9968
Eccentricity0.0001274
Argument of Perigee261.114
Mean Anonmoly8.3432
Mean Motion15.05627432
Decay Rate-0.00868636
L11 55361U 23013AG 23127.00001157 -.00868636 00000+0 -63784-1 0 9995
L22 55361 42.9968 166.0724 0001274 261.1140 8.3432 15.05627432 16197



Live tracking and technical data element details for STARLINK-5665 (NORAD 55361). STARLINK-5665 can be tracked NOW for your location showing map with azimuth and elevation plus other details from your city location.







IsCatalogInMostPopularTable: catalog: 55361, numindb: 1
Update: records affected: 1



GetName: 55361 STARLINK-5665

Hit Count: updated at: Mon, 05 Jun 2023 20:49:24 GMT